Tracking 29892 objects as of 21-Nov-2024
HD Live streaming from Space Station
objects crossing your sky now

STARLINK-2654

Track STARLINK-2654 now!
10-day predictions
STARLINK-2654 is classified as:


NORAD ID: 48454
Int'l Code: 2021-040AC
Perigee: 553.3 km
Apogee: 555.4 km
Inclination: 53.1 °
Period: 95.6 minutes
Semi major axis: 6925 km
RCS: Unknown
Launch date: May 9, 2021
Source: United States (US)
Launch site: AIR FORCE EASTERN TEST RANGE (AFETR)
Your satellite tracking list
Your tracking list is empty




NASA's NSSDC Master Catalog

Two Line Element Set (TLE):
1 48454U 21040AC  24325.52221848  .00001909  00000-0  14702-3 0  9996
2 48454  53.0544 150.2398 0001521  92.7387 267.3776 15.06406273196447
Source of the keplerian elements: AFSPC